This demonstration page uses our WeatherBlox Daily Observations layout. Learn more.

Left ArrowRight Arrow

39.51506, -84.39828

Hourly Observations for March 14, 2016

Temp ( °F °C ) Dew Point ( °F °C ) Humidity (%) Winds ( mph kmh ) Pressure ( in mb ) Visibility ( mi km ) Precip ( " mm )
12:15 am 00:15 Cloudy with Fog 55 12.5 52 11 91 91 Calm 29.77 1008 0 0 0.00 0.00
12:35 am 00:35 Cloudy with Fog 54 12.4 52 10.9 91 91 Calm 29.77 1008 5 8 0.00 0.00
12:55 am 00:55 Cloudy with Fog 52 11 49 9.6 91 91 Calm 29.77 1008 0 0 0.00 0.00
1:15 am 01:15 Cloudy with Fog 53 11.4 50 10.1 92 92 Calm 29.77 1008 5 8 0.00 0.00
1:35 am 01:35 Cloudy with Fog 52 11 49 9.7 92 92 Calm 29.80 1009 0 0 0.00 0.00
1:55 am 01:55 Cloudy with Fog 52 11 49 9.7 92 92 Calm 29.80 1009 0 0 0.00 0.00
2:15 am 02:15 Cloudy with Fog 52 10.9 49 9.5 91 91 Calm 29.80 1009 0 0 0.00 0.00
2:35 am 02:35 Cloudy with Fog 51 10.6 49 9.3 92 92 Calm 29.80 1009 5 8 0.00 0.00
2:55 am 02:55 Cloudy with Fog 53 11.4 50 10.1 92 92 Calm 29.80 1009 5 8 0.00 0.00
3:15 am 03:15 Cloudy with Fog 54 12.1 51 10.8 92 92 Calm 29.80 1009 0 0 0.00 0.00
3:35 am 03:35 Cloudy with Fog 55 12.5 52 11.1 91 91 Calm 29.80 1009 0 0 0.00 0.00
3:55 am 03:55 Cloudy with Fog 52 11 49 9.6 91 91 Calm 29.77 1008 0 0 0.00 0.00
4:15 am 04:15 Cloudy with Fog 52 10.9 49 9.6 92 92 Calm 29.77 1008 0 0 0.00 0.00
4:35 am 04:35 Cloudy with Fog 53 11.7 51 10.3 91 91 Calm 29.77 1008 5 8 0.00 0.00
4:55 am 04:55 Cloudy with Fog 51 10.8 49 9.5 92 92 Calm 29.77 1008 0 0 0.00 0.00
5:15 am 05:15 Cloudy with Fog 49 9.6 47 8.3 92 92 Calm 29.77 1008 0 0 0.00 0.00
5:35 am 05:35 Mostly Cloudy with Fog 51 10.3 48 9 92 92 Calm 29.77 1008 1 1 0.00 0.00
5:55 am 05:55 Cloudy with Fog 49 9.6 47 8.3 92 92 Calm 29.77 1008 0 0 0.00 0.00
6:15 am 06:15 Cloudy with Fog 49 9.6 47 8.3 92 92 Calm 29.77 1008 0 0 0.00 0.00
6:35 am 06:35 Cloudy with Fog 49 9.6 47 8.5 93 93 Calm 29.77 1008 0 0 0.00 0.00
6:55 am 06:55 Mostly Cloudy with Fog 49 9.6 47 8.4 92 92 Calm 29.77 1008 1 1 0.00 0.00
7:15 am 07:15 Mostly Cloudy with Fog 49 9.6 47 8.4 92 92 Calm 29.77 1008 1 1 0.00 0.00
7:35 am 07:35 Mostly Cloudy with Fog 49 9.6 47 8.4 92 92 Calm 29.80 1009 1 1 0.00 0.00
7:55 am 07:55 Cloudy with Fog 49 9.6 47 8.3 92 92 Calm 29.80 1009 5 8 0.00 0.00
8:15 am 08:15 Cloudy with Fog 49 9.6 47 8.3 92 92 Calm 29.80 1009 5 8 0.00 0.00
8:35 am 08:35 Cloudy with Fog 51 10.3 48 9.1 92 92 Calm 29.80 1009 5 8 0.00 0.00
8:55 am 08:55 Mostly Cloudy with Fog 55 12.5 52 11.1 91 91 Calm 29.80 1009 1 1 0.00 0.00
9:15 am 09:15 Mostly Cloudy with Mist and Fog 55 12.7 53 11.4 92 92 Calm 29.80 1009 2 3 0.00 0.00
9:35 am 09:35 Sunny with Mist and Fog 57 13.8 55 12.5 92 92 Calm 29.74 1007 2 3 0.00 0.00
9:55 am 09:55 Partly Cloudy with Mist and Fog 60 15.3 57 14 92 92 Calm 29.74 1007 4 6 0.00 0.00
10:15 am 10:15 Sunny with Mist and Fog 60 15.3 57 14 92 92 Calm 29.74 1007 5 8 0.00 0.00
10:35 am 10:35 Sunny 60 15.3 57 14 92 92 Calm 29.74 1007 7 11 0.00 0.00
10:55 am 10:55 Sunny 61 16 58 14.6 91 91 Calm 29.74 1007 10 16 0.00 0.00
11:15 am 11:15 Partly Cloudy 61 16.3 59 15.1 93 93 Calm 29.71 1006 10 16 0.00 0.00
11:35 am 11:35 Partly Cloudy 62 16.6 59 15.2 92 92 SE 5 7 29.71 1006 10 16 0.00 0.00
11:55 am 11:55 Partly Cloudy 62 16.6 59 14.8 89 89 SE 6 9 29.71 1006 10 16 0.00 0.00
12:15 pm 12:15 Mostly Cloudy with Light Rain 64 18 60 15.5 85 85 S 5 7 29.71 1006 10 16 0.00 0.00
12:35 pm 12:35 Cloudy with Heavy Rain 64 18 60 15.5 85 85 SE 6 9 29.71 1006 4 6 0.00 0.00
12:55 pm 12:55 Cloudy with Light Rain 66 18.8 62 16.5 87 87 SE 7 11 29.71 1006 10 16 0.00 0.00
1:15 pm 13:15 Cloudy with Heavy Rain 64 18 60 15.5 85 85 SE 6 9 29.68 1005 7 11 0.00 0.00
1:35 pm 13:35 Cloudy 65 18.5 61 15.9 85 85 SSE 13 20 29.68 1005 10 16 0.00 0.00
1:55 pm 13:55 Mostly Cloudy 69 20.8 62 16.9 78 78 SSW 17 28 29.68 1005 10 16 0.00 0.00
2:15 pm 14:15 Partly Cloudy 69 20.8 62 16.4 76 76 SW 13 20 29.68 1005 10 16 0.00 0.00
2:35 pm 14:35 Partly Cloudy 69 20.8 60 15.6 72 72 SW 14 22 29.65 1004 10 16 0.00 0.00
2:55 pm 14:55 Partly Cloudy 69 20.8 58 14.3 66 66 SW 14 22 29.65 1004 10 16 0.00 0.00
3:15 pm 15:15 Partly Cloudy 70 20.9 56 13.2 62 62 SW 16 26 29.65 1004 10 16 0.00 0.00
3:35 pm 15:35 Partly Cloudy 69 20.8 54 12.3 58 58 WSW 15 24 29.65 1004 10 16 0.00 0.00
3:55 pm 15:55 Partly Cloudy 69 20.8 57 14.1 66 66 W 10 17 29.65 1004 10 16 0.00 0.00
4:15 pm 16:15 Sunny 69 20.8 56 13.2 62 62 WSW 10 17 29.65 1004 10 16 0.00 0.00
4:35 pm 16:35 Mostly Cloudy 69 20.8 57 13.9 65 65 W 13 20 29.65 1004 10 16 0.00 0.00
5:00 pm 17:00 Partly Cloudy 69 20.8 55 12.9 61 61 W 14 22 29.65 1004 10 16 0.00 0.00
5:15 pm 17:15 Sunny 69 20.8 55 13 61 61 W 17 28 29.65 1004 10 16 0.00 0.00
5:35 pm 17:35 Partly Cloudy 69 20.8 57 13.8 64 64 W 10 17 29.65 1004 10 16 0.00 0.00
5:55 pm 17:55 Partly Cloudy 69 20.8 55 12.8 60 60 W 13 20 29.65 1004 10 16 0.00 0.00
6:15 pm 18:15 Sunny 69 20.8 55 12.8 60 60 WSW 12 19 29.65 1004 10 16 0.00 0.00
6:35 pm 18:35 Mostly Cloudy 68 20 54 12.2 61 61 WNW 9 15 29.68 1005 10 16 0.00 0.00
6:55 pm 18:55 Partly Cloudy 63 17.4 54 12.1 71 71 WNW 8 13 29.68 1005 10 16 0.00 0.00
7:15 pm 19:15 Mostly Cloudy 63 17 54 12.3 74 74 WNW 5 7 29.68 1005 10 16 0.00 0.00
7:35 pm 19:35 Cloudy 62 16.7 54 12.2 75 75 WNW 6 9 29.68 1005 10 16 0.00 0.00
7:55 pm 19:55 Cloudy 62 16.6 55 12.5 77 77 WNW 6 9 29.71 1006 10 16 0.00 0.00
8:15 pm 20:15 Cloudy 62 16.6 55 12.6 77 77 WNW 5 7 29.71 1006 10 16 0.00 0.00
8:35 pm 20:35 Cloudy 61 16 54 12.3 79 79 WNW 5 7 29.71 1006 10 16 0.00 0.00
8:55 pm 20:55 Cloudy 61 16 55 12.5 80 80 NW 8 13 29.71 1006 10 16 0.00 0.00
9:15 pm 21:15 Cloudy 61 16 55 12.6 80 80 WNW 5 7 29.71 1006 10 16 0.00 0.00
9:35 pm 21:35 Cloudy 60 15.6 55 12.6 82 82 WNW 7 11 29.74 1007 10 16 0.00 0.00
9:55 pm 21:55 Cloudy with Drizzle 60 15.3 55 12.7 85 85 W 8 13 29.74 1007 10 16 0.00 0.00
10:15 pm 22:15 Cloudy 60 15.3 55 12.6 84 84 W 8 13 29.74 1007 10 16 0.00 0.00
10:35 pm 22:35 Cloudy 60 15.3 55 12.5 84 84 W 6 9 29.74 1007 10 16 0.00 0.00
10:55 pm 22:55 Cloudy 60 15.3 55 12.6 84 84 Calm 29.77 1008 10 16 0.00 0.00
11:15 pm 23:15 Cloudy 60 15.3 55 12.7 85 85 W 5 7 29.77 1008 10 16 0.00 0.00
11:35 pm 23:35 Mostly Cloudy 60 15.3 55 12.8 85 85 W 6 9 29.77 1008 10 16 0.00 0.00
11:55 pm 23:55 Mostly Cloudy 60 15.3 55 13 86 86 W 5 7 29.77 1008 10 16 0.00 0.00

Powered by AerisWeather